Location: Julian California
(33.0790°N, 116.6010°W)
Time: 14:47:46
(UTC-07:00)

Meteor 1-5 Rocket - Pass Details

Date: 19 May 2017
Orbit: 789 x 915 km, 81.2° (Epoch: 24 May)

Event Time Altitude Azimuth Distance (km) Brightness Sun altitude
Rises 20:27:21 0° 351° (N) 3,540 8.1 -9.2°
Reaches altitude 10° 20:29:49 10° 351° (N) 2,602 7.3 -9.6°
Maximum altitude 20:35:48 87° 264° (W) 919 4.4 -10.7°
Drops below altitude 10° 20:41:44 10° 175° (S) 2,582 6.4 -11.7°
Enters shadow 20:44:09 - 175° (S) 3,502 7.0 -12.1°
